Weather History for Mount Sterling, KY

Change the Weather History Date:

Tuesday, October 9, 2012

  Actual Average Record
Temperature  
Mean Temperature 46 °F -  
Max Temperature 60 °F 71 °F 73 °F (2013)
Min Temperature 32 °F 48 °F 42 °F (2013)
Degree Days  
Heating Degree Days 19    
Moisture  
Dew Point 37 °F    
Average Humidity 79    
Maximum Humidity 100    
Minimum Humidity 42    
Precipitation  
Precipitation 0.00 in - - ()
Sea Level Pressure  
Sea Level Pressure 30.13 in    
Wind  
Wind Speed 2 mph ()    
Max Wind Speed 8 mph    
Max Gust Speed -    
Visibility 8.1 miles    
Events Fog    
Averages and records for this station are not official NWS values.
T = Trace of Precipitation, MM = Missing Value Source: Averaged Metar Reports

Daily Weather History Graph

Daily Weather History Graph

Search for Another Location

Airport:

Trip Planner

Search our weather history database for the weather conditions in past years. The results will help you decide how hot, cold, wet, or windy it might be!

Date:

Astronomy

Oct. 09, 2012 Rise Set
Actual Time 7:39 AM EDT 7:06 PM EDT
Civil Twilight 7:12 AM EDT 7:32 PM EDT
Nautical Twilight 6:42 AM EDT 8:02 PM EDT
Astronomical Twilight 6:11 AM EDT 8:33 PM EDT
Moon 1:20 AM EDT (10/9) 3:27 PM EDT (10/9)
Length of Visible Light 12h 19m
Length of Day
11h 26m
Last Quarter, 37% of the Moon is Illuminated
Oct 9
Last Quarter
Oct 15
New
Oct 21
First Quarter
Oct 29
Full
Nov 6
Last Quarter

Hourly Weather History & Observations

Time (EDT) Temp. Windchill Dew Point Humidity Pressure Visibility Wind Dir Wind Speed Gust Speed Precip Events Conditions
12:15 AM 37.4 °F - 37.4 °F 100% 30.20 in 10.0 mi Calm Calm - N/A   Clear
12:35 AM 37.4 °F - 35.6 °F 93% 30.19 in 10.0 mi Calm Calm - N/A   Clear
12:55 AM 39.2 °F 37.0 °F 37.4 °F 93% 30.19 in 10.0 mi SSE 3.5 mph - N/A   Clear
1:15 AM 35.6 °F - 35.6 °F 100% 30.19 in 10.0 mi Calm Calm - N/A   Clear
1:35 AM 37.4 °F - 35.6 °F 93% 30.18 in 10.0 mi Calm Calm - N/A   Clear
1:55 AM 33.8 °F - 33.8 °F 100% 30.18 in 7.0 mi Calm Calm - N/A   Clear
2:15 AM 33.8 °F - 33.8 °F 100% 30.19 in 10.0 mi Calm Calm - N/A   Clear
2:55 AM 33.8 °F - 33.8 °F 100% 30.19 in 10.0 mi Calm Calm - N/A   Clear
3:15 AM 32.0 °F - 32.0 °F 100% 30.18 in 10.0 mi Calm Calm - N/A   Clear
3:55 AM 32.0 °F - 32.0 °F 100% 30.18 in 10.0 mi Calm Calm - N/A   Clear
4:15 AM 35.6 °F - 33.8 °F 93% 30.18 in 10.0 mi Calm Calm - N/A   Clear
4:35 AM 32.0 °F - 32.0 °F 100% 30.17 in 10.0 mi Calm Calm - N/A   Scattered Clouds
4:55 AM 32.0 °F - 32.0 °F 100% 30.17 in 10.0 mi Calm Calm - N/A   Mostly Cloudy
5:15 AM 33.8 °F - 33.8 °F 100% 30.17 in 10.0 mi Calm Calm - N/A   Overcast
5:35 AM 32.0 °F - 32.0 °F 100% 30.17 in 4.0 mi Calm Calm - N/A   Overcast
5:55 AM 32.0 °F - 32.0 °F 100% 30.18 in 1.5 mi Calm Calm - N/A   Overcast
6:15 AM 32.0 °F - 32.0 °F 100% 30.18 in 2.5 mi Calm Calm - N/A   Overcast
6:35 AM 33.8 °F - 33.8 °F 100% 30.18 in 2.5 mi Calm Calm - N/A   Overcast
6:55 AM 32.0 °F 28.7 °F 32.0 °F 100% 30.18 in 1.0 mi SSE 3.5 mph - N/A   Overcast
7:15 AM 32.0 °F - 32.0 °F 100% 30.19 in 1.2 mi Calm Calm - N/A   Overcast
7:55 AM 32.0 °F - 32.0 °F 100% 30.20 in 0.5 mi Calm Calm - N/A Fog Fog
8:15 AM 32.0 °F - 32.0 °F 100% 30.20 in 0.8 mi Calm Calm - N/A   Overcast
8:35 AM 33.8 °F - 33.8 °F 100% 30.21 in 0.5 mi Calm Calm - N/A Fog Fog
8:55 AM 35.6 °F - 35.6 °F 100% 30.21 in 0.5 mi Calm Calm - N/A Fog Fog
9:15 AM 35.6 °F - 35.6 °F 100% 30.21 in 0.5 mi Calm Calm - N/A Fog Fog
9:35 AM 37.4 °F - 37.4 °F 100% 30.21 in 1.2 mi Calm Calm - N/A   Overcast
9:55 AM 39.2 °F - 39.2 °F 100% 30.21 in 1.2 mi Calm Calm - N/A   Overcast
10:15 AM 41.0 °F 39.0 °F 41.0 °F 100% 30.20 in 1.2 mi SSE 3.5 mph - N/A   Overcast
10:35 AM 41.0 °F - 41.0 °F 100% 30.20 in 2.5 mi Calm Calm - N/A   Overcast
10:55 AM 42.8 °F - 42.8 °F 100% 30.20 in 10.0 mi Calm Calm - N/A   Mostly Cloudy
11:15 AM 44.6 °F - 42.8 °F 93% 30.19 in 10.0 mi Calm Calm - N/A   Scattered Clouds
11:35 AM 48.2 °F - 42.8 °F 82% 30.19 in 10.0 mi SSE 3.5 mph - N/A   Clear
11:55 AM 50.0 °F - 41.0 °F 71% 30.19 in 10.0 mi SSE 3.5 mph - N/A   Clear
12:15 PM 51.8 °F - 41.0 °F 67% 30.19 in 10.0 mi SSE 6.9 mph - N/A   Clear
12:35 PM 51.8 °F - 39.2 °F 62% 30.18 in 10.0 mi ESE 3.5 mph - N/A   Clear
12:55 PM 51.8 °F - 37.4 °F 58% 30.18 in 10.0 mi Calm Calm - N/A   Clear
1:15 PM 53.6 °F - 37.4 °F 54% 30.16 in 10.0 mi Calm Calm - N/A   Clear
1:35 PM 53.6 °F - 37.4 °F 54% 30.15 in 10.0 mi Calm Calm - N/A   Clear
1:55 PM 55.4 °F - 37.4 °F 51% 30.14 in 10.0 mi SSE 4.6 mph - N/A   Clear
2:15 PM 55.4 °F - 35.6 °F 47% 30.12 in 10.0 mi SSW 3.5 mph - N/A   Clear
2:35 PM 55.4 °F - 37.4 °F 51% 30.11 in 10.0 mi SW 3.5 mph - N/A   Clear
2:55 PM 55.4 °F - 37.4 °F 51% 30.11 in 10.0 mi Calm Calm - N/A   Clear
3:15 PM 57.2 °F - 37.4 °F 48% 30.10 in 10.0 mi Calm Calm - N/A   Clear
3:35 PM 59.0 °F - 39.2 °F 48% 30.10 in 10.0 mi SSE 3.5 mph - N/A   Clear
3:55 PM 59.0 °F - 41.0 °F 51% 30.09 in 10.0 mi South 5.8 mph - N/A   Clear
4:15 PM 59.0 °F - 39.2 °F 48% 30.08 in 10.0 mi SW 6.9 mph - N/A   Clear
4:35 PM 60.8 °F - 37.4 °F 42% 30.07 in 10.0 mi SW 6.9 mph - N/A   Clear
4:55 PM 59.0 °F - 35.6 °F 42% 30.07 in 10.0 mi SSW 8.1 mph - N/A   Clear
5:15 PM 59.0 °F - 35.6 °F 42% 30.06 in 10.0 mi South 4.6 mph - N/A   Clear
5:35 PM 59.0 °F - 41.0 °F 51% 30.06 in 10.0 mi South 6.9 mph - N/A   Clear
5:55 PM 59.0 °F - 39.2 °F 48% 30.06 in 10.0 mi South 6.9 mph - N/A   Clear
6:15 PM 59.0 °F - 37.4 °F 45% 30.07 in 10.0 mi SW 4.6 mph - N/A   Clear
6:35 PM 55.4 °F - 35.6 °F 47% 30.06 in 10.0 mi South 6.9 mph - N/A   Clear
6:55 PM 55.4 °F - 35.6 °F 47% 30.05 in 10.0 mi South 4.6 mph - N/A   Clear
7:15 PM 53.6 °F - 35.6 °F 51% 30.05 in 10.0 mi South 4.6 mph - N/A   Clear
7:35 PM 51.8 °F - 35.6 °F 54% 30.05 in 10.0 mi South 4.6 mph - N/A   Clear
7:55 PM 51.8 °F - 37.4 °F 58% 30.06 in 10.0 mi South 4.6 mph - N/A   Clear
8:15 PM 51.8 °F - 41.0 °F 67% 30.05 in 10.0 mi South 6.9 mph - N/A   Clear
8:35 PM 50.0 °F - 42.8 °F 76% 30.05 in 10.0 mi South 5.8 mph - N/A   Clear
8:55 PM 50.0 °F - 42.8 °F 76% 30.06 in 10.0 mi South 5.8 mph - N/A   Clear
9:15 PM 50.0 °F - 42.8 °F 76% 30.06 in 10.0 mi South 6.9 mph - N/A   Clear
9:35 PM 48.2 °F - 42.8 °F 82% 30.06 in 10.0 mi SSW 5.8 mph - N/A   Clear
9:55 PM 48.2 °F - 42.8 °F 82% 30.05 in 10.0 mi South 6.9 mph - N/A   Clear
10:15 PM 44.6 °F 42.2 °F 41.0 °F 87% 30.05 in 10.0 mi SSW 4.6 mph - N/A   Clear
10:35 PM 44.6 °F 43.1 °F 41.0 °F 87% 30.05 in 10.0 mi SSW 3.5 mph - N/A   Clear
10:55 PM 44.6 °F 42.2 °F 42.8 °F 93% 30.05 in 10.0 mi SSW 4.6 mph - N/A   Clear
11:15 PM 44.6 °F 42.2 °F 42.8 °F 93% 30.05 in 10.0 mi SSW 4.6 mph - N/A   Clear
11:35 PM 44.6 °F 42.2 °F 42.8 °F 93% 30.04 in 10.0 mi SSW 4.6 mph - N/A   Clear
11:55 PM 44.6 °F 41.4 °F 42.8 °F 93% 30.04 in 10.0 mi SW 5.8 mph - N/A   Clear